Private Wetterstation Wechselburg
Wetterdaten: Samstag, 31.07.2021
Datum Zeit Temp. +2m Bodentemp. Temp.+5cm Temp. Wind Windchill X Diff Temp. Feuchte +2m Feuchte +5cm Luftdruck Regen Wind Richtung Richtung Sonnenschein Taupunkt Windchill Windben
31.07.2021 00:00 17,4 C 21,2 C 17,1 C 17,0 C 16,1 C 0,0 C 78 % 80 % 1008,4 hPa 0,0 l/m 0,0 km/h (0 Bft) W-SW 247 0 min 13,5 C 16,1 C 0,0 km/h (0 Bft)
31.07.2021 00:05 17,3 C 21,2 C 17,0 C 16,9 C 16,1 C 0,0 C 78 % 80 % 1008,4 hPa 0,0 l/m 0,0 km/h (0 Bft) W-SW 247 0 min 13,4 C 16,1 C 0,0 km/h (0 Bft)
31.07.2021 00:10 17,2 C 21,2 C 16,9 C 16,8 C 16,1 C 0,0 C 78 % 80 % 1008,4 hPa 0,0 l/m 0,0 km/h (0 Bft) W-SW 247 0 min 13,3 C 16,1 C 0,0 km/h (0 Bft)
31.07.2021 00:15 17,2 C 21,2 C 16,8 C 16,8 C 16,1 C 0,0 C 78 % 81 % 1008,6 hPa 0,0 l/m 0,0 km/h (0 Bft) W-SW 247 0 min 13,3 C 16,1 C 0,0 km/h (0 Bft)
31.07.2021 00:20 17,1 C 21,2 C 16,8 C 16,8 C 16,1 C 0,0 C 79 % 81 % 1008,6 hPa 0,0 l/m 0,0 km/h (0 Bft) W-SW 247 0 min 13,4 C 16,1 C 0,0 km/h (0 Bft)
31.07.2021 00:25 17,1 C 21,2 C 16,8 C 16,8 C 16,1 C 0,0 C 79 % 81 % 1008,6 hPa 0,0 l/m 0,0 km/h (0 Bft) W-SW 247 0 min 13,4 C 16,1 C 0,0 km/h (0 Bft)
31.07.2021 00:30 17,1 C 21,2 C 16,9 C 16,8 C 16,3 C 0,0 C 79 % 81 % 1008,6 hPa 0,0 l/m 0,0 km/h (0 Bft) W-SW 247 0 min 13,4 C 16,3 C 0,0 km/h (0 Bft)
31.07.2021 00:35 17,3 C 21,2 C 17,0 C 17,1 C 16,6 C 0,0 C 79 % 81 % 1008,2 hPa 0,0 l/m 0,2 km/h (0 Bft) W-SW 247 0 min 13,6 C 16,6 C 0,0 km/h (0 Bft)
31.07.2021 00:40 17,4 C 21,2 C 17,0 C 17,2 C 16,8 C 0,0 C 79 % 81 % 1008,2 hPa 0,0 l/m 0,2 km/h (0 Bft) W-SW 247 0 min 13,7 C 16,8 C 0,0 km/h (0 Bft)
31.07.2021 00:45 17,4 C 21,2 C 17,0 C 17,3 C 17,0 C 0,0 C 79 % 81 % 1008,2 hPa 0,0 l/m 0,0 km/h (0 Bft) W-SW 247 0 min 13,7 C 17,0 C 0,0 km/h (0 Bft)
31.07.2021 00:50 17,5 C 21,2 C 17,0 C 17,3 C 17,0 C 0,0 C 79 % 81 % 1008,2 hPa 0,0 l/m 0,0 km/h (0 Bft) W-SW 247 0 min 13,8 C 17,0 C 0,0 km/h (0 Bft)
31.07.2021 00:55 17,5 C 21,2 C 17,1 C 17,4 C 17,1 C 0,0 C 79 % 81 % 1008,4 hPa 0,0 l/m 0,0 km/h (0 Bft) W-SW 247 0 min 13,8 C 17,1 C 0,0 km/h (0 Bft)
31.07.2021 01:00 17,6 C 21,1 C 17,1 C 17,5 C 17,2 C 0,0 C 79 % 81 % 1008,4 hPa 0,0 l/m 0,0 km/h (0 Bft) W-SW 247 0 min 13,9 C 17,2 C 0,0 km/h (0 Bft)
31.07.2021 01:05 17,7 C 21,1 C 17,1 C 17,5 C 17,2 C 0,0 C 79 % 81 % 1008,4 hPa 0,0 l/m 0,0 km/h (0 Bft) W-SW 247 0 min 14,0 C 17,2 C 0,0 km/h (0 Bft)
31.07.2021 01:10 17,7 C 21,1 C 17,0 C 17,5 C 17,2 C 0,0 C 79 % 81 % 1008,4 hPa 0,0 l/m 0,0 km/h (0 Bft) W-SW 247 0 min 14,0 C 17,2 C 0,0 km/h (0 Bft)
31.07.2021 01:15 17,7 C 21,1 C 17,1 C 17,6 C 17,3 C 0,0 C 79 % 81 % 1008,5 hPa 0,0 l/m 0,0 km/h (0 Bft) W-SW 247 0 min 14,0 C 17,3 C 0,0 km/h (0 Bft)
31.07.2021 01:20 17,7 C 21,1 C 17,1 C 17,6 C 17,3 C 0,0 C 79 % 81 % 1008,5 hPa 0,0 l/m 0,0 km/h (0 Bft) W-SW 247 0 min 14,0 C 17,3 C 0,0 km/h (0 Bft)
31.07.2021 01:25 17,7 C 21,1 C 17,0 C 17,5 C 17,2 C 0,0 C 79 % 81 % 1008,5 hPa 0,0 l/m 0,0 km/h (0 Bft) W-SW 247 0 min 14,0 C 17,2 C 0,0 km/h (0 Bft)
31.07.2021 01:30 17,7 C 21,1 C 17,0 C 17,5 C 17,0 C 0,0 C 79 % 81 % 1008,5 hPa 0,0 l/m 0,0 km/h (0 Bft) W-SW 247 0 min 14,0 C 17,0 C 0,0 km/h (0 Bft)
31.07.2021 01:35 17,7 C 21,1 C 17,0 C 17,4 C 16,8 C 0,0 C 78 % 81 % 1008,6 hPa 0,0 l/m 0,0 km/h (0 Bft) W-SW 247 0 min 13,8 C 16,8 C 0,0 km/h (0 Bft)
31.07.2021 01:40 17,6 C 21,1 C 17,0 C 17,3 C 16,8 C 0,0 C 78 % 81 % 1008,6 hPa 0,0 l/m 0,0 km/h (0 Bft) S-SW 202 0 min 13,7 C 16,8 C 0,0 km/h (0 Bft)
31.07.2021 01:45 17,5 C 21,0 C 17,0 C 17,3 C 16,8 C 0,0 C 78 % 81 % 1008,6 hPa 0,0 l/m 0,0 km/h (0 Bft) S-SW 202 0 min 13,6 C 16,8 C 0,0 km/h (0 Bft)
31.07.2021 01:50 17,5 C 21,0 C 17,0 C 17,3 C 16,8 C 0,0 C 78 % 81 % 1008,6 hPa 0,0 l/m 0,0 km/h (0 Bft) O-NO 67 0 min 13,6 C 16,8 C 0,0 km/h (0 Bft)
31.07.2021 01:55 17,5 C 20,9 C 17,1 C 17,3 C 17,0 C 0,0 C 79 % 81 % 1008,4 hPa 0,0 l/m 0,0 km/h (0 Bft) SO 135 0 min 13,8 C 17,0 C 0,0 km/h (0 Bft)
31.07.2021 02:00 17,5 C 20,9 C 17,1 C 17,4 C 17,1 C 0,0 C 79 % 81 % 1008,4 hPa 0,0 l/m 0,0 km/h (0 Bft) SO 135 0 min 13,8 C 17,1 C 0,0 km/h (0 Bft)
31.07.2021 02:05 17,6 C 20,9 C 17,2 C 17,5 C 17,3 C 0,0 C 79 % 81 % 1008,4 hPa 0,0 l/m 0,0 km/h (0 Bft) SO 135 0 min 13,9 C 17,3 C 0,0 km/h (0 Bft)
31.07.2021 02:10 17,7 C 20,9 C 17,3 C 17,6 C 17,4 C 0,0 C 79 % 81 % 1008,4 hPa 0,0 l/m 0,0 km/h (0 Bft) SO 135 0 min 14,0 C 17,4 C 0,0 km/h (0 Bft)
31.07.2021 02:15 17,7 C 20,9 C 17,3 C 17,7 C 17,6 C 0,0 C 79 % 81 % 1008,4 hPa 0,0 l/m 0,0 km/h (0 Bft) S 180 0 min 14,0 C 17,6 C 0,0 km/h (0 Bft)
31.07.2021 02:20 17,8 C 20,9 C 17,4 C 17,8 C 17,7 C 0,0 C 79 % 81 % 1008,4 hPa 0,0 l/m 0,0 km/h (0 Bft) S-SO 157 0 min 14,1 C 17,7 C 0,0 km/h (0 Bft)
31.07.2021 02:25 17,9 C 20,9 C 17,4 C 17,9 C 17,8 C 0,0 C 79 % 81 % 1008,4 hPa 0,0 l/m 0,0 km/h (0 Bft) S-SW 202 0 min 14,2 C 17,8 C 0,0 km/h (0 Bft)
31.07.2021 02:30 18,0 C 20,8 C 17,5 C 17,9 C 17,8 C 0,0 C 79 % 81 % 1008,4 hPa 0,0 l/m 0,0 km/h (0 Bft) SO 135 0 min 14,3 C 17,8 C 0,0 km/h (0 Bft)
31.07.2021 02:35 18,1 C 20,8 C 17,5 C 18,0 C 17,8 C 0,0 C 78 % 80 % 1008,3 hPa 0,0 l/m 0,0 km/h (0 Bft) W-SW 247 0 min 14,2 C 17,8 C 0,0 km/h (0 Bft)
31.07.2021 02:40 18,3 C 20,8 C 17,7 C 18,2 C 17,9 C 0,0 C 78 % 80 % 1008,3 hPa 0,0 l/m 0,0 km/h (0 Bft) S-SO 157 0 min 14,4 C 17,9 C 0,0 km/h (0 Bft)
31.07.2021 02:45 18,3 C 20,8 C 17,8 C 18,3 C 18,2 C 0,0 C 77 % 80 % 1008,3 hPa 0,0 l/m 0,0 km/h (0 Bft) S 180 0 min 14,2 C 18,2 C 0,0 km/h (0 Bft)
31.07.2021 02:50 18,4 C 20,8 C 17,9 C 18,4 C 18,4 C 0,0 C 77 % 79 % 1008,3 hPa 0,0 l/m 0,2 km/h (0 Bft) S-SO 157 0 min 14,3 C 18,4 C 0,0 km/h (0 Bft)
31.07.2021 02:55 18,5 C 20,8 C 18,1 C 18,7 C 18,7 C 0,2 C 77 % 79 % 1008,2 hPa 0,0 l/m 0,2 km/h (0 Bft) S-SO 157 0 min 14,4 C 18,7 C 0,0 km/h (0 Bft)
31.07.2021 03:00 18,6 C 20,8 C 18,1 C 18,8 C 18,8 C 0,2 C 76 % 79 % 1008,2 hPa 0,0 l/m 0,2 km/h (0 Bft) S 180 0 min 14,3 C 18,8 C 0,0 km/h (0 Bft)
31.07.2021 03:05 18,8 C 20,8 C 18,3 C 19,0 C 19,0 C 0,2 C 76 % 78 % 1008,2 hPa 0,0 l/m 0,2 km/h (0 Bft) S-SW 202 0 min 14,5 C 19,0 C 0,0 km/h (0 Bft)
31.07.2021 03:10 18,9 C 20,8 C 18,3 C 19,0 C 19,0 C 0,1 C 75 % 78 % 1008,2 hPa 0,0 l/m 0,0 km/h (0 Bft) S-SO 157 0 min 14,4 C 19,0 C 0,0 km/h (0 Bft)
31.07.2021 03:15 19,0 C 20,8 C 18,3 C 19,0 C 18,9 C 0,0 C 75 % 78 % 1008,1 hPa 0,0 l/m 0,0 km/h (0 Bft) SO 135 0 min 14,5 C 18,9 C 0,0 km/h (0 Bft)
31.07.2021 03:20 19,0 C 20,8 C 18,2 C 18,9 C 18,7 C 0,0 C 75 % 77 % 1008,1 hPa 0,0 l/m 0,0 km/h (0 Bft) S-SO 157 0 min 14,5 C 18,7 C 0,0 km/h (0 Bft)
31.07.2021 03:25 18,9 C 20,8 C 18,0 C 18,7 C 18,3 C 0,0 C 75 % 78 % 1008,1 hPa 0,0 l/m 0,0 km/h (0 Bft) S-SO 157 0 min 14,4 C 18,3 C 0,0 km/h (0 Bft)
31.07.2021 03:30 18,8 C 20,8 C 17,9 C 18,6 C 18,1 C 0,0 C 75 % 78 % 1008,1 hPa 0,0 l/m 0,0 km/h (0 Bft) S-SO 157 0 min 14,3 C 18,1 C 0,0 km/h (0 Bft)
31.07.2021 03:35 18,8 C 20,8 C 17,8 C 18,5 C 18,0 C 0,0 C 75 % 78 % 1008,4 hPa 0,0 l/m 0,0 km/h (0 Bft) S-SO 157 0 min 14,3 C 18,0 C 0,0 km/h (0 Bft)
31.07.2021 03:40 18,8 C 20,7 C 17,8 C 18,5 C 18,0 C 0,0 C 75 % 78 % 1008,4 hPa 0,0 l/m 0,0 km/h (0 Bft) S-SO 157 0 min 14,3 C 18,0 C 0,0 km/h (0 Bft)
31.07.2021 03:45 18,8 C 20,7 C 17,9 C 18,6 C 18,2 C 0,0 C 75 % 78 % 1008,4 hPa 0,0 l/m 0,0 km/h (0 Bft) SW 225 0 min 14,3 C 18,2 C 0,0 km/h (0 Bft)
31.07.2021 03:50 18,8 C 20,7 C 18,1 C 18,7 C 18,4 C 0,0 C 75 % 78 % 1008,4 hPa 0,0 l/m 0,0 km/h (0 Bft) S-SO 157 0 min 14,3 C 18,4 C 0,0 km/h (0 Bft)
31.07.2021 03:55 18,9 C 20,7 C 18,1 C 18,8 C 18,6 C 0,0 C 75 % 77 % 1008,4 hPa 0,0 l/m 0,0 km/h (0 Bft) S 180 0 min 14,4 C 18,6 C 0,0 km/h (0 Bft)
31.07.2021 04:00 18,9 C 20,7 C 18,2 C 18,8 C 18,7 C 0,0 C 75 % 78 % 1008,4 hPa 0,0 l/m 0,0 km/h (0 Bft) S-SO 157 0 min 14,4 C 18,7 C 0,0 km/h (0 Bft)
31.07.2021 04:05 18,8 C 20,7 C 18,2 C 18,8 C 18,7 C 0,0 C 74 % 78 % 1008,4 hPa 0,0 l/m 0,0 km/h (0 Bft) S-SW 202 0 min 14,1 C 18,7 C 0,0 km/h (0 Bft)
31.07.2021 04:10 18,9 C 20,7 C 18,2 C 18,8 C 18,6 C 0,0 C 74 % 78 % 1008,4 hPa 0,0 l/m 0,0 km/h (0 Bft) S 180 0 min 14,2 C 18,6 C 0,0 km/h (0 Bft)
31.07.2021 04:15 18,8 C 20,7 C 18,1 C 18,7 C 18,4 C 0,0 C 74 % 77 % 1008,5 hPa 0,0 l/m 0,0 km/h (0 Bft) SO 135 0 min 14,1 C 18,4 C 0,0 km/h (0 Bft)
31.07.2021 04:20 18,8 C 20,7 C 18,1 C 18,6 C 18,1 C 0,0 C 74 % 77 % 1008,5 hPa 0,0 l/m 0,0 km/h (0 Bft) SO 135 0 min 14,1 C 18,1 C 0,0 km/h (0 Bft)
31.07.2021 04:25 18,7 C 20,7 C 18,1 C 18,5 C 18,0 C 0,0 C 74 % 77 % 1008,5 hPa 0,0 l/m 0,0 km/h (0 Bft) SO 135 0 min 14,0 C 18,0 C 0,0 km/h (0 Bft)
31.07.2021 04:30 18,6 C 20,7 C 18,0 C 18,3 C 17,8 C 0,0 C 74 % 77 % 1008,5 hPa 0,0 l/m 0,0 km/h (0 Bft) SO 135 0 min 13,9 C 17,8 C 0,0 km/h (0 Bft)
31.07.2021 04:35 18,7 C 20,7 C 18,0 C 18,4 C 17,7 C 0,0 C 75 % 77 % 1008,2 hPa 0,0 l/m 0,0 km/h (0 Bft) SO 135 0 min 14,2 C 17,7 C 0,0 km/h (0 Bft)
31.07.2021 04:40 18,7 C 20,7 C 18,0 C 18,4 C 17,7 C 0,0 C 75 % 77 % 1008,2 hPa 0,0 l/m 0,0 km/h (0 Bft) SO 135 0 min 14,2 C 17,7 C 0,0 km/h (0 Bft)
31.07.2021 04:45 18,6 C 20,7 C 18,0 C 18,3 C 17,7 C 0,0 C 75 % 77 % 1008,2 hPa 0,0 l/m 0,0 km/h (0 Bft) SW 225 0 min 14,1 C 17,7 C 0,0 km/h (0 Bft)
31.07.2021 04:50 18,5 C 20,7 C 18,0 C 18,2 C 17,6 C 0,0 C 74 % 77 % 1008,2 hPa 0,0 l/m 0,0 km/h (0 Bft) O-SO 112 0 min 13,8 C 17,6 C 0,0 km/h (0 Bft)
31.07.2021 04:55 18,5 C 20,7 C 17,9 C 18,2 C 17,6 C 0,0 C 74 % 77 % 1008,5 hPa 0,0 l/m 0,2 km/h (0 Bft) SW 225 0 min 13,8 C 17,6 C 0,0 km/h (0 Bft)
31.07.2021 05:00 18,4 C 20,7 C 17,9 C 18,1 C 17,5 C 0,0 C 74 % 77 % 1008,5 hPa 0,0 l/m 0,0 km/h (0 Bft) NW 315 0 min 13,7 C 17,5 C 0,0 km/h (0 Bft)
31.07.2021 05:05 18,4 C 20,6 C 17,9 C 18,1 C 17,4 C 0,0 C 74 % 77 % 1008,5 hPa 0,0 l/m 0,2 km/h (0 Bft) SW 225 0 min 13,7 C 17,4 C 0,0 km/h (0 Bft)
31.07.2021 05:10 18,4 C 20,6 C 17,9 C 18,0 C 17,3 C 0,0 C 74 % 77 % 1008,5 hPa 0,0 l/m 0,2 km/h (0 Bft) SW 225 0 min 13,7 C 17,3 C 0,0 km/h (0 Bft)
31.07.2021 05:15 18,4 C 20,6 C 17,9 C 18,0 C 17,3 C 0,0 C 74 % 77 % 1008,4 hPa 0,0 l/m 0,0 km/h (0 Bft) SW 225 0 min 13,7 C 17,3 C 0,0 km/h (0 Bft)
31.07.2021 05:20 18,4 C 20,6 C 17,8 C 18,0 C 17,3 C 0,0 C 74 % 77 % 1008,4 hPa 0,0 l/m 0,0 km/h (0 Bft) W-SW 247 0 min 13,7 C 17,3 C 0,0 km/h (0 Bft)
31.07.2021 05:25 18,4 C 20,6 C 17,7 C 18,0 C 17,2 C 0,0 C 74 % 77 % 1008,4 hPa 0,0 l/m 0,0 km/h (0 Bft) S-SW 202 0 min 13,7 C 17,2 C 0,0 km/h (0 Bft)
31.07.2021 05:30 18,3 C 20,6 C 17,7 C 17,9 C 17,1 C 0,0 C 74 % 77 % 1008,4 hPa 0,0 l/m 0,0 km/h (0 Bft) SO 135 0 min 13,6 C 17,1 C 0,0 km/h (0 Bft)
31.07.2021 05:35 18,2 C 20,6 C 17,7 C 17,8 C 17,0 C 0,0 C 74 % 77 % 1008,6 hPa 0,0 l/m 0,0 km/h (0 Bft) S 180 0 min 13,5 C 17,0 C 0,0 km/h (0 Bft)
31.07.2021 05:40 18,3 C 20,6 C 17,6 C 17,9 C 17,0 C 0,0 C 74 % 77 % 1008,6 hPa 0,0 l/m 0,0 km/h (0 Bft) W-SW 247 0 min 13,6 C 17,0 C 0,0 km/h (0 Bft)
31.07.2021 05:45 18,1 C 20,6 C 17,6 C 17,7 C 17,0 C 0,0 C 74 % 77 % 1008,6 hPa 0,0 l/m 0,2 km/h (0 Bft) W-NW 292 0 min 13,4 C 17,0 C 2,9 km/h (1 Bft)
31.07.2021 05:50 18,1 C 20,6 C 17,5 C 17,7 C 16,9 C 0,0 C 74 % 77 % 1008,6 hPa 0,0 l/m 0,2 km/h (0 Bft) SW 225 0 min 13,4 C 16,9 C 0,0 km/h (0 Bft)
31.07.2021 05:55 18,0 C 20,6 C 17,5 C 17,6 C 16,9 C 0,0 C 74 % 76 % 1008,9 hPa 0,0 l/m 0,2 km/h (0 Bft) SO 135 0 min 13,3 C 16,9 C 0,0 km/h (0 Bft)
31.07.2021 06:00 18,0 C 20,6 C 17,5 C 17,6 C 16,9 C 0,0 C 74 % 77 % 1008,9 hPa 0,0 l/m 0,0 km/h (0 Bft) O 90 0 min 13,3 C 16,9 C 0,0 km/h (0 Bft)
31.07.2021 06:05 18,0 C 20,6 C 17,5 C 17,6 C 16,9 C 0,0 C 74 % 76 % 1008,9 hPa 0,0 l/m 0,2 km/h (0 Bft) S-SO 157 0 min 13,3 C 16,9 C 0,0 km/h (0 Bft)
31.07.2021 06:10 17,9 C 20,5 C 17,4 C 17,5 C 16,8 C 0,0 C 74 % 77 % 1008,9 hPa 0,0 l/m 0,0 km/h (0 Bft) W 270 0 min 13,2 C 16,8 C 0,0 km/h (0 Bft)
31.07.2021 06:15 17,8 C 20,5 C 17,4 C 17,5 C 16,8 C 0,0 C 74 % 77 % 1008,8 hPa 0,0 l/m 0,2 km/h (0 Bft) W 270 0 min 13,1 C 16,8 C 0,0 km/h (0 Bft)
31.07.2021 06:20 17,8 C 20,5 C 17,4 C 17,5 C 16,8 C 0,0 C 74 % 77 % 1008,8 hPa 0,0 l/m 0,2 km/h (0 Bft) S-SW 202 0 min 13,1 C 16,8 C 3,2 km/h (1 Bft)
31.07.2021 06:25 17,9 C 20,5 C 17,4 C 17,6 C 16,9 C 0,0 C 74 % 76 % 1008,8 hPa 0,0 l/m 0,2 km/h (0 Bft) W-SW 247 0 min 13,2 C 16,9 C 0,0 km/h (0 Bft)
31.07.2021 06:30 17,9 C 20,5 C 17,4 C 17,6 C 16,9 C 0,0 C 74 % 76 % 1008,8 hPa 0,0 l/m 0,2 km/h (0 Bft) SW 225 0 min 13,2 C 16,9 C 4,5 km/h (1 Bft)
31.07.2021 06:35 17,8 C 20,5 C 17,4 C 17,5 C 16,9 C 0,0 C 74 % 76 % 1008,9 hPa 0,0 l/m 0,0 km/h (0 Bft) N-NO 22 0 min 13,1 C 16,9 C 0,0 km/h (0 Bft)
31.07.2021 06:40 17,8 C 20,5 C 17,4 C 17,5 C 17,0 C 0,0 C 74 % 76 % 1008,9 hPa 0,0 l/m 0,0 km/h (0 Bft) SW 225 0 min 13,1 C 17,0 C 0,0 km/h (0 Bft)
31.07.2021 06:45 17,8 C 20,5 C 17,5 C 17,6 C 17,1 C 0,0 C 74 % 77 % 1008,9 hPa 0,0 l/m 0,2 km/h (0 Bft) S-SO 157 0 min 13,1 C 17,1 C 0,0 km/h (0 Bft)
31.07.2021 06:50 17,8 C 20,5 C 17,5 C 17,6 C 17,2 C 0,0 C 74 % 77 % 1008,9 hPa 0,0 l/m 0,0 km/h (0 Bft) S-SO 157 0 min 13,1 C 17,2 C 0,0 km/h (0 Bft)
31.07.2021 06:55 17,8 C 20,5 C 18,0 C 17,6 C 17,3 C 0,0 C 75 % 77 % 1009,3 hPa 0,0 l/m 0,2 km/h (0 Bft) SW 225 0 min 13,3 C 17,3 C 0,0 km/h (0 Bft)
31.07.2021 07:00 17,9 C 20,5 C 18,2 C 17,8 C 17,5 C 0,0 C 75 % 77 % 1009,3 hPa 0,0 l/m 0,2 km/h (0 Bft) SW 225 0 min 13,4 C 17,5 C 0,0 km/h (0 Bft)
31.07.2021 07:05 17,9 C 20,5 C 18,3 C 17,8 C 17,5 C 0,0 C 75 % 76 % 1009,3 hPa 0,0 l/m 0,0 km/h (0 Bft) SW 225 0 min 13,4 C 17,5 C 0,0 km/h (0 Bft)
31.07.2021 07:10 17,9 C 20,5 C 18,3 C 17,8 C 17,5 C 0,0 C 75 % 76 % 1009,3 hPa 0,0 l/m 0,0 km/h (0 Bft) SW 225 0 min 13,4 C 17,5 C 0,0 km/h (0 Bft)
31.07.2021 07:15 18,3 C 20,5 C 19,1 C 21,6 C 21,6 C 3,3 C 75 % 74 % 1009,2 hPa 0,0 l/m 0,0 km/h (0 Bft) SO 135 5 min 13,8 C 21,6 C 0,0 km/h (0 Bft)
31.07.2021 07:20 18,4 C 20,5 C 19,3 C 23,5 C 23,5 C 5,1 C 75 % 73 % 1009,2 hPa 0,0 l/m 0,0 km/h (0 Bft) S-SW 202 5 min 13,9 C 23,5 C 0,0 km/h (0 Bft)
31.07.2021 07:25 19,0 C 20,4 C 19,5 C 25,3 C 25,3 C 6,3 C 75 % 72 % 1009,2 hPa 0,0 l/m 0,3 km/h (0 Bft) S-SO 157 5 min 14,5 C 25,3 C 2,9 km/h (1 Bft)
31.07.2021 07:30 19,4 C 20,4 C 19,5 C 26,0 C 26,0 C 6,6 C 74 % 72 % 1009,2 hPa 0,0 l/m 0,5 km/h (0 Bft) SW 225 5 min 14,6 C 26,0 C 0,0 km/h (0 Bft)
31.07.2021 07:35 19,9 C 20,4 C 19,4 C 27,1 C 27,1 C 7,2 C 73 % 72 % 1009,3 hPa 0,0 l/m 0,8 km/h (0 Bft) S-SO 157 5 min 14,9 C 27,1 C 1,8 km/h (1 Bft)
31.07.2021 07:40 20,0 C 20,4 C 19,3 C 27,2 C 27,2 C 7,2 C 72 % 71 % 1009,3 hPa 0,0 l/m 0,8 km/h (0 Bft) SO 135 5 min 14,8 C 27,2 C 4,7 km/h (1 Bft)
31.07.2021 07:45 20,2 C 20,4 C 19,3 C 27,3 C 27,3 C 7,1 C 70 % 71 % 1009,3 hPa 0,0 l/m 1,6 km/h (1 Bft) SW 225 5 min 14,5 C 27,3 C 2,4 km/h (1 Bft)
31.07.2021 07:50 20,3 C 20,4 C 19,3 C 27,4 C 27,4 C 7,1 C 68 % 70 % 1009,3 hPa 0,0 l/m 2,3 km/h (1 Bft) O-NO 67 5 min 14,2 C 27,4 C 5,0 km/h (1 Bft)
31.07.2021 07:55 20,3 C 20,4 C 19,4 C 27,5 C 27,5 C 7,2 C 66 % 69 % 1009,6 hPa 0,0 l/m 2,4 km/h (1 Bft) S-SW 202 5 min 13,7 C 27,5 C 2,1 km/h (1 Bft)
31.07.2021 08:00 20,3 C 20,4 C 19,3 C 27,5 C 27,5 C 7,2 C 66 % 68 % 1009,6 hPa 0,0 l/m 2,4 km/h (1 Bft) W-SW 247 5 min 13,7 C 27,5 C 5,6 km/h (1 Bft)
31.07.2021 08:05 20,4 C 20,4 C 19,3 C 27,8 C 27,8 C 7,4 C 66 % 68 % 1009,6 hPa 0,0 l/m 2,3 km/h (1 Bft) SW 225 5 min 13,8 C 27,8 C 3,5 km/h (1 Bft)
31.07.2021 08:10 20,5 C 20,4 C 19,3 C 27,9 C 27,9 C 7,4 C 64 % 68 % 1009,6 hPa 0,0 l/m 2,6 km/h (1 Bft) W 270 5 min 13,5 C 27,9 C 3,2 km/h (1 Bft)
31.07.2021 08:15 20,4 C 20,4 C 19,2 C 27,8 C 27,8 C 7,4 C 63 % 67 % 1009,7 hPa 0,0 l/m 2,9 km/h (1 Bft) S-SW 202 5 min 13,1 C 27,8 C 2,4 km/h (1 Bft)
31.07.2021 08:20 20,5 C 20,4 C 19,2 C 28,1 C 28,1 C 7,6 C 64 % 68 % 1009,7 hPa 0,0 l/m 2,4 km/h (1 Bft) N-NW 337 5 min 13,5 C 28,1 C 7,4 km/h (2 Bft)
31.07.2021 08:25 20,9 C 20,4 C 19,3 C 28,7 C 28,7 C 7,8 C 62 % 67 % 1009,7 hPa 0,0 l/m 2,1 km/h (1 Bft) SW 225 5 min 13,3 C 28,7 C 3,7 km/h (1 Bft)
31.07.2021 08:30 20,8 C 20,4 C 19,3 C 28,6 C 28,6 C 7,8 C 61 % 66 % 1009,7 hPa 0,0 l/m 2,6 km/h (1 Bft) S-SW 202 5 min 13,0 C 28,6 C 8,9 km/h (2 Bft)
31.07.2021 08:35 20,8 C 20,4 C 19,3 C 28,5 C 28,5 C 7,7 C 60 % 65 % 1009,4 hPa 0,0 l/m 2,9 km/h (1 Bft) S-SO 157 5 min 12,7 C 28,5 C 2,1 km/h (1 Bft)
31.07.2021 08:40 20,8 C 20,3 C 19,3 C 28,3 C 28,3 C 7,5 C 59 % 64 % 1009,4 hPa 0,0 l/m 3,4 km/h (1 Bft) W-SW 247 5 min 12,5 C 28,3 C 3,9 km/h (1 Bft)
31.07.2021 08:45 20,8 C 20,3 C 19,3 C 28,2 C 28,2 C 7,4 C 60 % 64 % 1009,4 hPa 0,0 l/m 3,4 km/h (1 Bft) O-NO 67 5 min 12,7 C 28,2 C 2,1 km/h (1 Bft)
31.07.2021 08:50 21,0 C 20,3 C 19,4 C 28,7 C 28,7 C 7,7 C 60 % 65 % 1009,4 hPa 0,0 l/m 2,6 km/h (1 Bft) S-SO 157 5 min 12,9 C 28,7 C 9,7 km/h (2 Bft)
31.07.2021 08:55 21,5 C 20,3 C 19,5 C 29,2 C 29,2 C 7,7 C 59 % 65 % 1009,7 hPa 0,0 l/m 2,4 km/h (1 Bft) W-SW 247 5 min 13,1 C 29,2 C 5,6 km/h (1 Bft)
31.07.2021 09:00 21,2 C 20,3 C 19,5 C 28,8 C 28,8 C 7,6 C 59 % 64 % 1009,7 hPa 0,0 l/m 2,7 km/h (1 Bft) SW 225 5 min 12,9 C 28,8 C 2,9 km/h (1 Bft)
31.07.2021 09:05 21,3 C 20,3 C 19,5 C 28,9 C 28,9 C 7,6 C 59 % 64 % 1009,7 hPa 0,0 l/m 3,1 km/h (1 Bft) SO 135 5 min 13,0 C 28,9 C 4,3 km/h (1 Bft)
31.07.2021 09:10 21,3 C 20,3 C 19,5 C 28,7 C 28,7 C 7,4 C 58 % 63 % 1009,7 hPa 0,0 l/m 3,1 km/h (1 Bft) S 180 5 min 12,7 C 28,7 C 6,0 km/h (2 Bft)
31.07.2021 09:15 21,3 C 20,3 C 19,6 C 25,7 C 25,7 C 4,4 C 58 % 63 % 1009,3 hPa 0,0 l/m 3,7 km/h (1 Bft) SW 225 5 min 12,7 C 25,7 C 5,0 km/h (1 Bft)
31.07.2021 09:20 21,1 C 20,2 C 19,6 C 24,5 C 24,5 C 3,4 C 57 % 62 % 1009,3 hPa 0,0 l/m 3,9 km/h (1 Bft) S 180 5 min 12,2 C 24,5 C 2,9 km/h (1 Bft)
31.07.2021 09:25 21,2 C 20,2 C 19,8 C 23,7 C 23,7 C 2,5 C 58 % 61 % 1009,3 hPa 0,0 l/m 3,7 km/h (1 Bft) S 180 0 min 12,6 C 23,7 C 2,1 km/h (1 Bft)
31.07.2021 09:30 21,3 C 20,2 C 19,9 C 24,1 C 24,1 C 2,8 C 57 % 61 % 1009,3 hPa 0,0 l/m 3,4 km/h (1 Bft) SW 225 0 min 12,4 C 24,1 C 11,1 km/h (2 Bft)
31.07.2021 09:35 21,2 C 20,2 C 20,0 C 23,3 C 23,3 C 2,1 C 56 % 61 % 1009,6 hPa 0,0 l/m 3,9 km/h (1 Bft) W-SW 247 0 min 12,1 C 23,3 C 8,0 km/h (2 Bft)
31.07.2021 09:40 21,3 C 20,2 C 20,0 C 23,0 C 23,0 C 1,7 C 56 % 60 % 1009,6 hPa 0,0 l/m 4,2 km/h (1 Bft) N-NW 337 0 min 12,2 C 23,0 C 2,9 km/h (1 Bft)
31.07.2021 09:45 21,3 C 20,2 C 20,1 C 22,6 C 22,6 C 1,3 C 57 % 60 % 1009,6 hPa 0,0 l/m 4,3 km/h (1 Bft) W-SW 247 0 min 12,4 C 22,6 C 5,6 km/h (1 Bft)
31.07.2021 09:50 21,2 C 20,2 C 20,2 C 22,4 C 22,4 C 1,2 C 56 % 58 % 1009,6 hPa 0,0 l/m 4,2 km/h (1 Bft) S 180 0 min 12,1 C 22,4 C 4,3 km/h (1 Bft)
31.07.2021 09:55 21,3 C 20,2 C 20,3 C 22,3 C 22,3 C 1,0 C 56 % 59 % 1009,4 hPa 0,0 l/m 4,3 km/h (1 Bft) W-SW 247 0 min 12,2 C 22,3 C 6,1 km/h (2 Bft)
31.07.2021 10:00 21,3 C 20,1 C 20,3 C 22,4 C 22,4 C 1,1 C 56 % 59 % 1009,4 hPa 0,0 l/m 4,5 km/h (1 Bft) S-SO 157 0 min 12,2 C 22,4 C 3,9 km/h (1 Bft)
31.07.2021 10:05 21,4 C 20,1 C 20,4 C 22,9 C 22,9 C 1,5 C 56 % 58 % 1009,4 hPa 0,0 l/m 4,2 km/h (1 Bft) SW 225 0 min 12,3 C 22,9 C 6,8 km/h (2 Bft)
31.07.2021 10:10 21,5 C 20,1 C 20,5 C 23,4 C 23,4 C 1,9 C 56 % 58 % 1009,4 hPa 0,0 l/m 3,5 km/h (1 Bft) S 180 0 min 12,3 C 23,4 C 4,2 km/h (1 Bft)
31.07.2021 10:15 21,6 C 20,1 C 20,6 C 23,3 C 23,3 C 1,7 C 55 % 57 % 1009,9 hPa 0,0 l/m 4,3 km/h (1 Bft) S-SW 202 0 min 12,2 C 23,3 C 16,4 km/h (3 Bft)
31.07.2021 10:20 21,6 C 20,1 C 20,7 C 23,4 C 23,4 C 1,8 C 54 % 57 % 1009,9 hPa 0,0 l/m 4,7 km/h (1 Bft) S 180 0 min 11,9 C 23,4 C 4,3 km/h (1 Bft)
31.07.2021 10:25 21,7 C 20,1 C 20,9 C 23,2 C 23,2 C 1,5 C 54 % 57 % 1009,9 hPa 0,0 l/m 4,0 km/h (1 Bft) SW 225 0 min 12,0 C 23,2 C 3,7 km/h (1 Bft)
31.07.2021 10:30 21,8 C 20,1 C 21,0 C 23,3 C 23,3 C 1,5 C 54 % 57 % 1009,9 hPa 0,0 l/m 3,1 km/h (1 Bft) W-SW 247 0 min 12,1 C 23,3 C 4,5 km/h (1 Bft)
31.07.2021 10:35 21,9 C 20,1 C 21,1 C 25,5 C 25,5 C 3,6 C 53 % 56 % 1010,1 hPa 0,0 l/m 3,4 km/h (1 Bft) SW 225 5 min 11,9 C 25,5 C 7,1 km/h (2 Bft)
31.07.2021 10:40 22,0 C 20,1 C 21,2 C 25,5 C 25,5 C 3,5 C 53 % 56 % 1010,1 hPa 0,0 l/m 3,7 km/h (1 Bft) SO 135 5 min 12,0 C 25,5 C 2,3 km/h (1 Bft)
31.07.2021 10:45 22,0 C 20,1 C 21,2 C 25,7 C 25,7 C 3,7 C 52 % 54 % 1010,1 hPa 0,0 l/m 4,5 km/h (1 Bft) S-SO 157 5 min 11,7 C 25,7 C 10,5 km/h (2 Bft)
31.07.2021 10:50 22,0 C 20,1 C 21,2 C 26,2 C 26,2 C 4,2 C 52 % 55 % 1010,1 hPa 0,0 l/m 4,2 km/h (1 Bft) SW 225 5 min 11,7 C 26,2 C 4,3 km/h (1 Bft)
31.07.2021 10:55 22,1 C 20,1 C 21,2 C 25,9 C 25,9 C 3,8 C 52 % 55 % 1009,5 hPa 0,0 l/m 3,7 km/h (1 Bft) S 180 5 min 11,8 C 25,9 C 4,3 km/h (1 Bft)
31.07.2021 11:00 22,3 C 20,1 C 21,3 C 25,6 C 25,6 C 3,3 C 51 % 54 % 1009,5 hPa 0,0 l/m 3,9 km/h (1 Bft) W-SW 247 5 min 11,7 C 25,6 C 6,6 km/h (2 Bft)
31.07.2021 11:05 22,3 C 20,1 C 21,5 C 26,5 C 26,5 C 4,2 C 51 % 53 % 1009,5 hPa 0,0 l/m 4,3 km/h (1 Bft) S 180 5 min 11,7 C 26,5 C 4,3 km/h (1 Bft)
31.07.2021 11:10 22,2 C 20,1 C 21,5 C 25,8 C 25,8 C 3,6 C 50 % 53 % 1009,5 hPa 0,0 l/m 4,5 km/h (1 Bft) SW 225 5 min 11,3 C 25,8 C 5,8 km/h (2 Bft)
31.07.2021 11:15 22,4 C 20,1 C 21,8 C 24,9 C 24,9 C 2,5 C 51 % 53 % 1009,8 hPa 0,0 l/m 4,5 km/h (1 Bft) SW 225 0 min 11,8 C 24,9 C 5,5 km/h (1 Bft)
31.07.2021 11:20 22,5 C 20,1 C 21,9 C 24,7 C 24,7 C 2,2 C 50 % 52 % 1009,8 hPa 0,0 l/m 4,2 km/h (1 Bft) O-SO 112 0 min 11,5 C 24,7 C 5,1 km/h (1 Bft)
31.07.2021 11:25 22,5 C 20,1 C 21,8 C 24,2 C 24,2 C 1,7 C 49 % 51 % 1009,8 hPa 0,0 l/m 4,7 km/h (1 Bft) S-SO 157 0 min 11,2 C 24,2 C 6,0 km/h (2 Bft)
31.07.2021 11:30 22,5 C 20,1 C 21,7 C 23,8 C 23,8 C 1,3 C 49 % 51 % 1009,8 hPa 0,0 l/m 5,0 km/h (1 Bft) SW 225 0 min 11,2 C 23,8 C 3,9 km/h (1 Bft)
31.07.2021 11:35 22,4 C 20,1 C 21,9 C 23,6 C 23,6 C 1,2 C 49 % 51 % 1009,8 hPa 0,0 l/m 4,5 km/h (1 Bft) W-SW 247 0 min 11,2 C 23,6 C 4,5 km/h (1 Bft)
31.07.2021 11:40 22,7 C 20,1 C 22,0 C 23,8 C 23,8 C 1,1 C 49 % 51 % 1009,8 hPa 0,0 l/m 3,7 km/h (1 Bft) O-SO 112 0 min 11,4 C 23,8 C 3,5 km/h (1 Bft)
31.07.2021 11:45 22,8 C 20,1 C 22,2 C 24,1 C 24,1 C 1,3 C 48 % 50 % 1009,8 hPa 0,0 l/m 3,5 km/h (1 Bft) SW 225 0 min 11,2 C 24,1 C 8,9 km/h (2 Bft)
31.07.2021 11:50 22,8 C 20,1 C 22,1 C 24,0 C 24,0 C 1,2 C 48 % 50 % 1009,8 hPa 0,0 l/m 4,3 km/h (1 Bft) S 180 0 min 11,2 C 24,0 C 3,1 km/h (1 Bft)
31.07.2021 11:55 22,9 C 20,1 C 22,2 C 24,1 C 24,1 C 1,2 C 48 % 50 % 1009,6 hPa 0,0 l/m 4,5 km/h (1 Bft) W-SW 247 0 min 11,3 C 24,1 C 4,8 km/h (1 Bft)
31.07.2021 12:00 23,0 C 20,1 C 22,4 C 24,2 C 24,2 C 1,2 C 47 % 48 % 1009,6 hPa 0,0 l/m 4,0 km/h (1 Bft) W-SW 247 0 min 11,1 C 24,2 C 7,1 km/h (2 Bft)
31.07.2021 12:05 23,1 C 20,1 C 22,5 C 24,4 C 24,4 C 1,3 C 46 % 48 % 1009,6 hPa 0,0 l/m 5,0 km/h (1 Bft) SW 225 0 min 10,8 C 24,4 C 6,1 km/h (2 Bft)
31.07.2021 12:10 23,2 C 20,1 C 22,6 C 24,8 C 24,8 C 1,6 C 46 % 48 % 1009,6 hPa 0,0 l/m 4,8 km/h (1 Bft) N-NW 337 0 min 10,9 C 24,8 C 3,5 km/h (1 Bft)
31.07.2021 12:15 23,4 C 20,1 C 22,7 C 26,6 C 26,6 C 3,2 C 47 % 49 % 1009,7 hPa 0,0 l/m 4,0 km/h (1 Bft) SW 225 0 min 11,4 C 26,6 C 11,4 km/h (2 Bft)
31.07.2021 12:20 23,5 C 20,1 C 22,7 C 27,4 C 27,4 C 3,9 C 46 % 48 % 1009,7 hPa 0,0 l/m 3,5 km/h (1 Bft) S 180 5 min 11,2 C 27,4 C 4,8 km/h (1 Bft)
31.07.2021 12:25 23,7 C 20,1 C 23,0 C 28,4 C 28,4 C 4,7 C 46 % 47 % 1009,7 hPa 0,0 l/m 3,7 km/h (1 Bft) SW 225 5 min 11,4 C 28,4 C 5,6 km/h (1 Bft)
31.07.2021 12:30 24,0 C 20,1 C 23,1 C 28,9 C 28,9 C 4,9 C 46 % 47 % 1009,7 hPa 0,0 l/m 3,5 km/h (1 Bft) O 90 5 min 11,7 C 28,9 C 2,4 km/h (1 Bft)
31.07.2021 12:35 24,5 C 20,1 C 23,3 C 29,3 C 29,3 C 4,8 C 45 % 47 % 1009,8 hPa 0,0 l/m 3,4 km/h (1 Bft) S-SW 202 5 min 11,8 C 29,3 C 4,8 km/h (1 Bft)
31.07.2021 12:40 24,5 C 20,1 C 23,4 C 29,3 C 29,3 C 4,8 C 44 % 46 % 1009,8 hPa 0,0 l/m 3,7 km/h (1 Bft) SW 225 5 min 11,4 C 29,3 C 4,5 km/h (1 Bft)
31.07.2021 12:45 24,6 C 20,1 C 23,5 C 29,4 C 29,4 C 4,8 C 44 % 47 % 1009,8 hPa 0,0 l/m 3,9 km/h (1 Bft) W-SW 247 5 min 11,5 C 29,4 C 5,0 km/h (1 Bft)
31.07.2021 12:50 24,5 C 20,1 C 23,5 C 29,4 C 29,4 C 4,9 C 44 % 46 % 1009,8 hPa 0,0 l/m 3,9 km/h (1 Bft) SW 225 5 min 11,4 C 29,4 C 4,0 km/h (1 Bft)
31.07.2021 12:55 24,5 C 20,1 C 23,6 C 29,1 C 29,1 C 4,6 C 44 % 46 % 1009,9 hPa 0,0 l/m 4,0 km/h (1 Bft) S-SO 157 5 min 11,4 C 29,1 C 1,9 km/h (1 Bft)
31.07.2021 13:00 24,7 C 20,1 C 23,8 C 29,2 C 29,2 C 4,5 C 44 % 46 % 1009,9 hPa 0,0 l/m 4,0 km/h (1 Bft) S-SO 157 5 min 11,6 C 29,2 C 10,1 km/h (2 Bft)
31.07.2021 13:05 24,9 C 20,1 C 24,0 C 29,5 C 29,5 C 4,6 C 44 % 46 % 1009,9 hPa 0,0 l/m 3,9 km/h (1 Bft) O-NO 67 5 min 11,8 C 29,5 C 2,3 km/h (1 Bft)
31.07.2021 13:10 24,9 C 20,1 C 24,0 C 29,5 C 29,5 C 4,6 C 44 % 46 % 1009,9 hPa 0,0 l/m 3,9 km/h (1 Bft) O-NO 67 5 min 11,8 C 29,5 C 2,3 km/h (1 Bft)
31.07.2021 13:15 25,4 C 20,1 C 25,0 C 30,2 C 30,2 C 4,8 C 43 % 45 % 1009,9 hPa 0,0 l/m 2,9 km/h (1 Bft) W-SW 247 5 min 11,9 C 30,2 C 4,5 km/h (1 Bft)
31.07.2021 13:20 25,4 C 20,1 C 25,3 C 30,4 C 30,4 C 5,0 C 42 % 43 % 1009,9 hPa 0,0 l/m 3,7 km/h (1 Bft) S-SW 202 5 min 11,5 C 30,4 C 4,5 km/h (1 Bft)
31.07.2021 13:25 25,5 C 20,1 C 25,1 C 30,5 C 30,5 C 5,0 C 42 % 43 % 1009,9 hPa 0,0 l/m 3,9 km/h (1 Bft) W-SW 247 5 min 11,6 C 30,5 C 4,7 km/h (1 Bft)
31.07.2021 13:30 25,2 C 20,1 C 24,7 C 29,6 C 29,6 C 4,4 C 41 % 42 % 1009,9 hPa 0,0 l/m 4,7 km/h (1 Bft) SW 225 5 min 11,0 C 29,6 C 9,3 km/h (2 Bft)
31.07.2021 13:35 25,1 C 20,1 C 24,6 C 29,4 C 29,4 C 4,3 C 42 % 43 % 1010,0 hPa 0,0 l/m 4,8 km/h (1 Bft) N 360 5 min 11,3 C 29,4 C 14,0 km/h (3 Bft)
31.07.2021 13:40 25,1 C 20,1 C 24,6 C 29,5 C 29,5 C 4,4 C 42 % 43 % 1010,0 hPa 0,0 l/m 4,3 km/h (1 Bft) S 180 5 min 11,3 C 29,5 C 4,8 km/h (1 Bft)
31.07.2021 13:45 25,3 C 20,1 C 24,5 C 29,4 C 29,4 C 4,1 C 42 % 44 % 1010,0 hPa 0,0 l/m 4,2 km/h (1 Bft) S 180 5 min 11,5 C 29,4 C 11,3 km/h (2 Bft)
31.07.2021 13:50 25,3 C 20,1 C 24,6 C 29,6 C 29,6 C 4,3 C 42 % 43 % 1010,0 hPa 0,0 l/m 4,3 km/h (1 Bft) W-SW 247 5 min 11,5 C 29,6 C 11,3 km/h (2 Bft)
31.07.2021 13:55 24,9 C 20,2 C 24,2 C 28,1 C 28,1 C 3,2 C 42 % 43 % 1010,2 hPa 0,0 l/m 4,5 km/h (1 Bft) SW 225 0 min 11,1 C 28,1 C 3,9 km/h (1 Bft)
31.07.2021 14:00 24,6 C 20,2 C 24,2 C 27,8 C 27,8 C 3,2 C 43 % 44 % 1010,2 hPa 0,0 l/m 4,2 km/h (1 Bft) SW 225 0 min 11,2 C 27,8 C 3,2 km/h (1 Bft)
31.07.2021 14:05 24,8 C 20,2 C 24,4 C 28,4 C 28,4 C 3,6 C 43 % 44 % 1010,2 hPa 0,0 l/m 3,2 km/h (1 Bft) S 180 5 min 11,4 C 28,4 C 4,8 km/h (1 Bft)
31.07.2021 14:10 24,9 C 20,1 C 24,6 C 28,8 C 28,8 C 3,9 C 43 % 44 % 1010,2 hPa 0,0 l/m 3,7 km/h (1 Bft) W-SW 247 5 min 11,4 C 28,8 C 5,1 km/h (1 Bft)
31.07.2021 14:15 24,8 C 20,2 C 24,7 C 29,1 C 29,1 C 4,3 C 43 % 44 % 1010,0 hPa 0,0 l/m 4,3 km/h (1 Bft) SW 225 5 min 11,4 C 29,1 C 6,0 km/h (2 Bft)
31.07.2021 14:20 24,7 C 20,2 C 24,3 C 28,2 C 28,2 C 3,5 C 43 % 44 % 1010,0 hPa 0,0 l/m 3,9 km/h (1 Bft) SO 135 5 min 11,3 C 28,2 C 2,1 km/h (1 Bft)
31.07.2021 14:25 24,5 C 20,2 C 24,0 C 27,0 C 27,0 C 2,5 C 44 % 45 % 1010,0 hPa 0,0 l/m 3,4 km/h (1 Bft) W-SW 247 0 min 11,4 C 27,0 C 4,7 km/h (1 Bft)
31.07.2021 14:30 24,3 C 20,2 C 24,0 C 26,7 C 26,7 C 2,4 C 44 % 46 % 1010,0 hPa 0,0 l/m 3,1 km/h (1 Bft) SW 225 0 min 11,3 C 26,7 C 2,6 km/h (1 Bft)
31.07.2021 14:35 24,4 C 20,3 C 23,9 C 27,0 C 27,0 C 2,6 C 44 % 44 % 1010,2 hPa 0,0 l/m 3,9 km/h (1 Bft) SW 225 0 min 11,3 C 27,0 C 4,8 km/h (1 Bft)
31.07.2021 14:40 24,2 C 20,3 C 23,9 C 26,8 C 26,8 C 2,6 C 44 % 45 % 1010,2 hPa 0,0 l/m 3,9 km/h (1 Bft) S 180 0 min 11,2 C 26,8 C 4,2 km/h (1 Bft)
31.07.2021 14:45 24,4 C 20,3 C 23,8 C 26,8 C 26,8 C 2,4 C 44 % 44 % 1010,2 hPa 0,0 l/m 3,7 km/h (1 Bft) S-SW 202 0 min 11,3 C 26,8 C 7,9 km/h (2 Bft)
31.07.2021 14:50 24,3 C 20,3 C 23,6 C 26,2 C 26,2 C 1,9 C 44 % 45 % 1010,2 hPa 0,0 l/m 2,6 km/h (1 Bft) S-SO 157 0 min 11,3 C 26,2 C 3,1 km/h (1 Bft)
31.07.2021 14:55 24,4 C 20,3 C 23,9 C 27,0 C 27,0 C 2,6 C 45 % 46 % 1010,4 hPa 0,0 l/m 2,4 km/h (1 Bft) S 180 0 min 11,7 C 27,0 C 2,1 km/h (1 Bft)
31.07.2021 15:00 24,5 C 20,3 C 23,8 C 27,0 C 27,0 C 2,5 C 44 % 45 % 1010,4 hPa 0,0 l/m 3,2 km/h (1 Bft) SW 225 0 min 11,4 C 27,0 C 3,9 km/h (1 Bft)
31.07.2021 15:05 24,3 C 20,3 C 23,9 C 26,8 C 26,8 C 2,5 C 43 % 45 % 1010,4 hPa 0,0 l/m 4,2 km/h (1 Bft) S 180 0 min 10,9 C 26,8 C 9,2 km/h (2 Bft)
31.07.2021 15:10 24,6 C 20,4 C 24,4 C 28,5 C 28,5 C 3,9 C 43 % 43 % 1010,7 hPa 0,0 l/m 4,8 km/h (1 Bft) W-SW 247 5 min 11,2 C 28,5 C 3,9 km/h (1 Bft)
31.07.2021 15:15 24,3 C 20,4 C 24,3 C 27,7 C 27,7 C 3,4 C 44 % 44 % 1010,6 hPa 0,0 l/m 4,5 km/h (1 Bft) SW 225 5 min 11,3 C 27,7 C 6,1 km/h (2 Bft)
31.07.2021 16:19 24,3 C 20,4 C 24,3 C 27,7 C 27,7 C 3,4 C 44 % 44 % 1010,6 hPa 0,0 l/m 4,5 km/h (1 Bft) SW 225 60 min 11,3 C 27,7 C 6,1 km/h (2 Bft)
31.07.2021 16:25 24,4 C 20,4 C 24,3 C 28,1 C 28,1 C 3,7 C 43 % 43 % 1010,6 hPa 0,0 l/m 4,8 km/h (1 Bft) S 180 6 min 11,0 C 28,1 C 8,4 km/h (2 Bft)
31.07.2021 16:30 24,3 C 20,4 C 24,0 C 27,3 C 27,3 C 3,0 C 43 % 43 % 1010,6 hPa 0,0 l/m 5,3 km/h (1 Bft) SW 225 0 min 10,9 C 27,3 C 5,1 km/h (1 Bft)
31.07.2021 16:35 24,1 C 20,4 C 23,9 C 26,5 C 26,5 C 2,4 C 44 % 44 % 1010,6 hPa 0,0 l/m 4,5 km/h (1 Bft) SW 225 0 min 11,1 C 26,5 C 3,2 km/h (1 Bft)
31.07.2021 16:40 24,1 C 20,4 C 23,8 C 26,0 C 26,0 C 1,9 C 45 % 45 % 1010,8 hPa 0,0 l/m 3,4 km/h (1 Bft) S 180 0 min 11,4 C 26,0 C 2,4 km/h (1 Bft)
31.07.2021 16:45 24,3 C 20,4 C 24,2 C 27,1 C 27,1 C 2,8 C 45 % 45 % 1010,8 hPa 0,0 l/m 3,2 km/h (1 Bft) W-SW 247 0 min 11,6 C 27,1 C 4,0 km/h (1 Bft)
31.07.2021 16:50 24,6 C 20,4 C 24,4 C 28,2 C 28,2 C 3,6 C 44 % 43 % 1010,8 hPa 0,0 l/m 4,0 km/h (1 Bft) NW 315 5 min 11,5 C 28,2 C 3,2 km/h (1 Bft)
31.07.2021 16:55 24,6 C 20,4 C 24,2 C 28,2 C 28,2 C 3,6 C 44 % 44 % 1010,8 hPa 0,0 l/m 3,9 km/h (1 Bft) S-SW 202 5 min 11,5 C 28,2 C 7,2 km/h (2 Bft)
31.07.2021 17:00 24,3 C 20,4 C 24,1 C 27,1 C 27,1 C 2,8 C 44 % 44 % 1010,8 hPa 0,0 l/m 4,2 km/h (1 Bft) S-SW 202 0 min 11,3 C 27,1 C 5,3 km/h (1 Bft)
31.07.2021 17:05 24,3 C 20,4 C 24,3 C 27,2 C 27,2 C 2,9 C 43 % 43 % 1010,8 hPa 0,0 l/m 4,7 km/h (1 Bft) O 90 0 min 10,9 C 27,2 C 7,7 km/h (2 Bft)
31.07.2021 17:10 24,5 C 20,4 C 24,6 C 27,4 C 27,4 C 2,9 C 43 % 43 % 1010,8 hPa 0,0 l/m 4,7 km/h (1 Bft) S-SW 202 0 min 11,1 C 27,4 C 4,3 km/h (1 Bft)
31.07.2021 17:15 24,5 C 20,4 C 24,6 C 27,1 C 27,1 C 2,6 C 43 % 42 % 1010,8 hPa 0,0 l/m 5,1 km/h (1 Bft) W-SW 247 0 min 11,1 C 27,1 C 4,0 km/h (1 Bft)
31.07.2021 17:20 24,5 C 20,4 C 24,7 C 27,0 C 27,0 C 2,5 C 43 % 43 % 1010,6 hPa 0,0 l/m 4,3 km/h (1 Bft) SO 135 0 min 11,1 C 27,0 C 2,7 km/h (1 Bft)
31.07.2021 17:25 24,7 C 20,4 C 24,7 C 27,2 C 27,2 C 2,5 C 43 % 43 % 1010,6 hPa 0,0 l/m 3,4 km/h (1 Bft) W-SW 247 0 min 11,3 C 27,2 C 7,1 km/h (2 Bft)
31.07.2021 17:30 24,7 C 20,5 C 24,8 C 27,0 C 27,0 C 2,3 C 43 % 43 % 1010,6 hPa 0,0 l/m 3,5 km/h (1 Bft) S-SW 202 0 min 11,3 C 27,0 C 7,4 km/h (2 Bft)
31.07.2021 17:35 24,7 C 20,5 C 24,8 C 26,7 C 26,7 C 2,0 C 42 % 42 % 1010,6 hPa 0,0 l/m 4,2 km/h (1 Bft) SW 225 0 min 10,9 C 26,7 C 5,3 km/h (1 Bft)
31.07.2021 17:40 24,5 C 20,4 C 24,3 C 25,9 C 25,9 C 1,4 C 43 % 43 % 1010,6 hPa 0,0 l/m 4,7 km/h (1 Bft) S-SW 202 0 min 11,1 C 25,9 C 3,2 km/h (1 Bft)
31.07.2021 17:45 24,4 C 20,4 C 24,4 C 25,7 C 25,7 C 1,3 C 43 % 43 % 1010,6 hPa 0,0 l/m 3,9 km/h (1 Bft) S 180 0 min 11,0 C 25,7 C 3,5 km/h (1 Bft)
31.07.2021 17:50 24,7 C 20,4 C 24,6 C 25,7 C 25,7 C 1,0 C 44 % 43 % 1010,6 hPa 0,0 l/m 2,7 km/h (1 Bft) SO 135 0 min 11,6 C 25,7 C 3,1 km/h (1 Bft)
31.07.2021 17:55 24,7 C 20,4 C 24,7 C 25,8 C 25,8 C 1,1 C 43 % 43 % 1010,6 hPa 0,0 l/m 3,1 km/h (1 Bft) SW 225 0 min 11,3 C 25,8 C 6,1 km/h (2 Bft)
31.07.2021 18:00 24,7 C 20,4 C 24,5 C 25,5 C 25,5 C 0,8 C 43 % 44 % 1010,6 hPa 0,0 l/m 3,7 km/h (1 Bft) N-NO 22 0 min 11,3 C 25,5 C 3,9 km/h (1 Bft)
31.07.2021 18:05 24,6 C 20,4 C 24,6 C 25,5 C 25,5 C 0,9 C 44 % 43 % 1010,6 hPa 0,0 l/m 3,2 km/h (1 Bft) N-NO 22 0 min 11,5 C 25,5 C 7,7 km/h (2 Bft)
31.07.2021 18:11 24,4 C 20,5 C 24,5 C 25,2 C 25,2 C 0,8 C 44 % 43 % 1010,6 hPa 0,0 l/m 3,5 km/h (1 Bft) N 0 0 min 11,3 C 25,2 C 3,7 km/h (1 Bft)
31.07.2021 18:29 24,3 C 20,5 C 24,2 C 25,3 C 25,3 C 1,0 C 44 % 44 % 1010,6 hPa 0,0 l/m 3,5 km/h (1 Bft) S 180 0 min 11,3 C 25,3 C 4,8 km/h (1 Bft)
31.07.2021 18:31 24,3 C 20,5 C 24,3 C 25,3 C 25,3 C 1,0 C 44 % 44 % 1010,6 hPa 0,0 l/m 3,4 km/h (1 Bft) W 270 0 min 11,3 C 25,3 C 4,7 km/h (1 Bft)
31.07.2021 18:35 24,3 C 20,5 C 24,3 C 25,3 C 25,3 C 1,0 C 44 % 44 % 1010,6 hPa 0,0 l/m 3,4 km/h (1 Bft) W 270 0 min 11,3 C 25,3 C 4,7 km/h (1 Bft)
31.07.2021 18:40 24,2 C 20,5 C 24,2 C 25,1 C 25,1 C 0,9 C 43 % 43 % 1010,6 hPa 0,0 l/m 4,0 km/h (1 Bft) S 180 0 min 10,8 C 25,1 C 3,1 km/h (1 Bft)
31.07.2021 18:45 24,3 C 20,5 C 24,2 C 24,9 C 24,9 C 0,6 C 44 % 44 % 1010,6 hPa 0,0 l/m 3,9 km/h (1 Bft) W 270 0 min 11,3 C 24,9 C 9,8 km/h (2 Bft)
31.07.2021 18:50 24,2 C 20,5 C 24,1 C 24,7 C 24,7 C 0,5 C 44 % 44 % 1010,6 hPa 0,0 l/m 3,4 km/h (1 Bft) W-SW 247 0 min 11,2 C 24,7 C 2,6 km/h (1 Bft)
31.07.2021 18:55 24,1 C 20,5 C 24,0 C 24,6 C 24,6 C 0,5 C 44 % 44 % 1010,6 hPa 0,0 l/m 3,2 km/h (1 Bft) S-SW 202 0 min 11,1 C 24,6 C 2,7 km/h (1 Bft)
31.07.2021 19:00 24,0 C 20,5 C 23,8 C 24,5 C 24,5 C 0,5 C 44 % 45 % 1010,7 hPa 0,0 l/m 2,7 km/h (1 Bft) SW 225 0 min 11,0 C 24,5 C 4,3 km/h (1 Bft)
31.07.2021 19:05 24,0 C 20,5 C 23,7 C 24,4 C 24,4 C 0,4 C 44 % 45 % 1010,7 hPa 0,0 l/m 2,6 km/h (1 Bft) SW 225 0 min 11,0 C 24,4 C 3,5 km/h (1 Bft)
31.07.2021 19:10 24,1 C 20,5 C 23,7 C 24,6 C 24,6 C 0,5 C 45 % 46 % 1010,7 hPa 0,0 l/m 1,9 km/h (1 Bft) N-NO 22 0 min 11,4 C 24,6 C 4,7 km/h (1 Bft)
31.07.2021 19:15 24,0 C 20,5 C 23,7 C 24,7 C 24,7 C 0,7 C 45 % 46 % 1010,7 hPa 0,0 l/m 1,9 km/h (1 Bft) W-SW 247 0 min 11,3 C 24,7 C 1,6 km/h (1 Bft)
31.07.2021 19:20 24,0 C 20,5 C 23,7 C 24,7 C 24,7 C 0,7 C 45 % 46 % 1010,8 hPa 0,0 l/m 2,3 km/h (1 Bft) S-SO 157 0 min 11,3 C 24,7 C 4,2 km/h (1 Bft)
31.07.2021 19:25 24,1 C 20,5 C 23,6 C 24,4 C 24,4 C 0,3 C 45 % 46 % 1010,8 hPa 0,0 l/m 2,4 km/h (1 Bft) W-SW 247 0 min 11,4 C 24,4 C 2,7 km/h (1 Bft)
31.07.2021 19:30 23,9 C 20,5 C 23,4 C 24,7 C 24,7 C 0,8 C 45 % 46 % 1010,8 hPa 0,0 l/m 2,9 km/h (1 Bft) W-SW 247 0 min 11,2 C 24,7 C 3,1 km/h (1 Bft)
31.07.2021 19:35 23,7 C 20,5 C 23,3 C 25,3 C 25,3 C 1,6 C 45 % 47 % 1010,8 hPa 0,0 l/m 2,4 km/h (1 Bft) SW 225 0 min 11,1 C 25,3 C 2,9 km/h (1 Bft)
31.07.2021 19:40 23,6 C 20,6 C 23,1 C 26,0 C 26,0 C 2,4 C 46 % 47 % 1010,7 hPa 0,0 l/m 1,9 km/h (1 Bft) W-NW 292 5 min 11,3 C 26,0 C 3,9 km/h (1 Bft)
31.07.2021 19:45 23,5 C 20,6 C 23,1 C 26,0 C 26,0 C 2,5 C 46 % 47 % 1010,7 hPa 0,0 l/m 2,3 km/h (1 Bft) SW 225 5 min 11,2 C 26,0 C 3,2 km/h (1 Bft)
31.07.2021 19:50 23,3 C 20,6 C 22,9 C 26,1 C 26,1 C 2,8 C 46 % 47 % 1010,7 hPa 0,0 l/m 2,4 km/h (1 Bft) W-SW 247 5 min 11,0 C 26,1 C 2,6 km/h (1 Bft)
31.07.2021 19:55 23,2 C 20,6 C 22,7 C 25,9 C 25,9 C 2,7 C 46 % 47 % 1010,7 hPa 0,0 l/m 1,9 km/h (1 Bft) S 180 5 min 10,9 C 25,9 C 2,1 km/h (1 Bft)
31.07.2021 20:00 23,0 C 20,6 C 22,5 C 25,3 C 25,3 C 2,3 C 47 % 48 % 1010,9 hPa 0,0 l/m 1,3 km/h (1 Bft) SW 225 5 min 11,1 C 25,3 C 3,1 km/h (1 Bft)
31.07.2021 20:05 22,9 C 20,6 C 22,4 C 25,0 C 25,0 C 2,1 C 47 % 49 % 1010,9 hPa 0,0 l/m 1,1 km/h (1 Bft) SW 225 5 min 11,0 C 25,0 C 2,1 km/h (1 Bft)
31.07.2021 20:11 22,7 C 20,6 C 21,9 C 23,7 C 23,7 C 1,0 C 48 % 50 % 1010,9 hPa 0,0 l/m 1,1 km/h (1 Bft) N 0 6 min 11,1 C 23,7 C 2,6 km/h (1 Bft)
31.07.2021 20:26 22,1 C 20,6 C 21,2 C 21,9 C 21,4 C 0,0 C 50 % 52 % 1010,9 hPa 0,0 l/m 0,3 km/h (0 Bft) SW 225 0 min 11,2 C 21,4 C 0,0 km/h (0 Bft)
31.07.2021 20:39 21,8 C 20,6 C 20,7 C 21,5 C 20,9 C 0,0 C 51 % 55 % 1011,0 hPa 0,0 l/m 0,2 km/h (0 Bft) S-SW 202 0 min 11,2 C 20,9 C 0,0 km/h (0 Bft)
31.07.2021 20:45 21,7 C 20,5 C 20,6 C 21,4 C 20,8 C 0,0 C 52 % 55 % 1011,0 hPa 0,0 l/m 0,2 km/h (0 Bft) S-SW 202 0 min 11,4 C 20,8 C 0,0 km/h (0 Bft)
31.07.2021 20:50 21,5 C 20,5 C 20,4 C 21,2 C 20,5 C 0,0 C 52 % 55 % 1011,0 hPa 0,0 l/m 0,0 km/h (0 Bft) SW 225 0 min 11,2 C 20,5 C 0,0 km/h (0 Bft)
31.07.2021 20:55 21,3 C 20,5 C 20,3 C 20,9 C 20,1 C 0,0 C 52 % 56 % 1011,0 hPa 0,0 l/m 0,3 km/h (0 Bft) S-SW 202 0 min 11,0 C 20,1 C 1,6 km/h (1 Bft)
31.07.2021 21:00 21,1 C 20,5 C 20,1 C 20,6 C 19,7 C 0,0 C 53 % 57 % 1011,4 hPa 0,0 l/m 0,3 km/h (0 Bft) SW 225 0 min 11,1 C 19,7 C 0,0 km/h (0 Bft)
31.07.2021 21:05 21,1 C 20,5 C 20,0 C 20,6 C 19,5 C 0,0 C 53 % 57 % 1011,4 hPa 0,0 l/m 0,2 km/h (0 Bft) SW 225 0 min 11,1 C 19,5 C 0,0 km/h (0 Bft)
31.07.2021 21:10 20,9 C 20,5 C 19,8 C 20,3 C 19,1 C 0,0 C 54 % 58 % 1011,4 hPa 0,0 l/m 0,0 km/h (0 Bft) SW 225 0 min 11,2 C 19,1 C 0,0 km/h (0 Bft)
31.07.2021 21:15 20,7 C 20,6 C 19,7 C 20,1 C 18,9 C 0,0 C 54 % 58 % 1011,4 hPa 0,0 l/m 0,0 km/h (0 Bft) SW 225 0 min 11,1 C 18,9 C 0,0 km/h (0 Bft)
31.07.2021 21:20 20,4 C 20,6 C 19,5 C 19,8 C 18,5 C 0,0 C 54 % 59 % 1011,2 hPa 0,0 l/m 0,0 km/h (0 Bft) SW 225 0 min 10,8 C 18,5 C 0,0 km/h (0 Bft)
31.07.2021 21:25 20,3 C 20,6 C 19,2 C 19,6 C 18,3 C 0,0 C 54 % 59 % 1011,2 hPa 0,0 l/m 0,0 km/h (0 Bft) SW 225 0 min 10,7 C 18,3 C 0,0 km/h (0 Bft)
31.07.2021 21:30 20,1 C 20,6 C 18,9 C 19,4 C 17,9 C 0,0 C 55 % 61 % 1011,2 hPa 0,0 l/m 0,0 km/h (0 Bft) SW 225 0 min 10,8 C 17,9 C 0,0 km/h (0 Bft)
31.07.2021 21:35 19,9 C 20,6 C 18,9 C 19,2 C 17,7 C 0,0 C 56 % 61 % 1011,2 hPa 0,0 l/m 0,0 km/h (0 Bft) SW 225 0 min 10,9 C 17,7 C 0,0 km/h (0 Bft)
31.07.2021 21:40 19,6 C 20,6 C 18,6 C 18,8 C 17,3 C 0,0 C 57 % 62 % 1011,6 hPa 0,0 l/m 0,0 km/h (0 Bft) SW 225 0 min 10,8 C 17,3 C 0,0 km/h (0 Bft)
31.07.2021 21:45 19,4 C 20,6 C 18,3 C 18,6 C 17,1 C 0,0 C 58 % 63 % 1011,6 hPa 0,0 l/m 0,0 km/h (0 Bft) SW 225 0 min 10,9 C 17,1 C 0,0 km/h (0 Bft)
31.07.2021 21:50 18,9 C 20,6 C 17,9 C 18,2 C 16,8 C 0,0 C 59 % 64 % 1011,6 hPa 0,0 l/m 0,0 km/h (0 Bft) SW 225 0 min 10,7 C 16,8 C 0,0 km/h (0 Bft)
31.07.2021 21:55 18,6 C 20,6 C 17,8 C 17,9 C 16,6 C 0,0 C 60 % 65 % 1011,6 hPa 0,0 l/m 0,0 km/h (0 Bft) SW 225 0 min 10,7 C 16,6 C 0,0 km/h (0 Bft)
31.07.2021 22:00 18,4 C 20,6 C 17,5 C 17,7 C 16,4 C 0,0 C 61 % 66 % 1011,7 hPa 0,0 l/m 0,0 km/h (0 Bft) O 90 0 min 10,7 C 16,4 C 0,0 km/h (0 Bft)
31.07.2021 22:05 18,1 C 20,6 C 17,4 C 17,5 C 16,3 C 0,0 C 62 % 66 % 1011,7 hPa 0,0 l/m 0,0 km/h (0 Bft) O 90 0 min 10,7 C 16,3 C 0,0 km/h (0 Bft)
31.07.2021 22:11 17,6 C 20,6 C 17,0 C 17,1 C 16,0 C 0,0 C 65 % 68 % 1011,7 hPa 0,0 l/m 0,0 km/h (0 Bft) N 0 0 min 10,9 C 16,0 C 0,0 km/h (0 Bft)
31.07.2021 22:26 17,1 C 20,6 C 16,5 C 16,6 C 15,5 C 0,0 C 67 % 70 % 1011,4 hPa 0,0 l/m 0,0 km/h (0 Bft) O-NO 67 0 min 10,9 C 15,5 C 0,0 km/h (0 Bft)
31.07.2021 22:27 17,1 C 20,6 C 16,5 C 16,6 C 15,5 C 0,0 C 67 % 70 % 1011,4 hPa 0,0 l/m 0,0 km/h (0 Bft) O-NO 67 0 min 10,9 C 15,5 C 0,0 km/h (0 Bft)
31.07.2021 22:39 16,7 C 20,6 C 16,2 C 16,2 C 15,2 C 0,0 C 68 % 71 % 1011,5 hPa 0,0 l/m 0,0 km/h (0 Bft) O 90 0 min 10,8 C 15,2 C 0,0 km/h (0 Bft)
31.07.2021 22:45 16,6 C 20,6 C 16,1 C 16,1 C 15,1 C 0,0 C 68 % 71 % 1011,5 hPa 0,0 l/m 0,0 km/h (0 Bft) O 90 0 min 10,7 C 15,1 C 0,0 km/h (0 Bft)
31.07.2021 22:50 16,5 C 20,6 C 15,9 C 15,9 C 14,8 C 0,0 C 68 % 72 % 1011,5 hPa 0,0 l/m 0,0 km/h (0 Bft) O-NO 67 0 min 10,6 C 14,8 C 0,0 km/h (0 Bft)
31.07.2021 22:55 16,3 C 20,6 C 15,8 C 15,7 C 14,5 C 0,0 C 68 % 72 % 1011,5 hPa 0,0 l/m 0,0 km/h (0 Bft) O-NO 67 0 min 10,4 C 14,5 C 0,0 km/h (0 Bft)
31.07.2021 23:00 16,1 C 20,6 C 15,7 C 15,5 C 14,3 C 0,0 C 69 % 73 % 1011,6 hPa 0,0 l/m 0,0 km/h (0 Bft) O-NO 67 0 min 10,4 C 14,3 C 0,0 km/h (0 Bft)
31.07.2021 23:05 16,0 C 20,5 C 15,6 C 15,4 C 14,3 C 0,0 C 70 % 73 % 1011,6 hPa 0,0 l/m 0,0 km/h (0 Bft) O-NO 67 0 min 10,5 C 14,3 C 0,0 km/h (0 Bft)
31.07.2021 23:10 15,8 C 20,5 C 15,5 C 15,3 C 14,3 C 0,0 C 71 % 74 % 1011,6 hPa 0,0 l/m 0,0 km/h (0 Bft) O-NO 67 0 min 10,6 C 14,3 C 0,0 km/h (0 Bft)
31.07.2021 23:15 15,7 C 20,5 C 15,5 C 15,2 C 14,3 C 0,0 C 72 % 74 % 1011,6 hPa 0,0 l/m 0,0 km/h (0 Bft) O 90 0 min 10,7 C 14,3 C 0,0 km/h (0 Bft)
31.07.2021 23:20 15,6 C 20,5 C 15,3 C 15,2 C 14,3 C 0,0 C 73 % 75 % 1011,5 hPa 0,0 l/m 0,0 km/h (0 Bft) O-NO 67 0 min 10,8 C 14,3 C 0,0 km/h (0 Bft)
31.07.2021 23:25 15,4 C 20,5 C 15,2 C 15,0 C 14,1 C 0,0 C 73 % 76 % 1011,5 hPa 0,0 l/m 0,0 km/h (0 Bft) O-NO 67 0 min 10,6 C 14,1 C 0,0 km/h (0 Bft)
31.07.2021 23:30 15,3 C 20,5 C 15,1 C 14,9 C 14,0 C 0,0 C 73 % 76 % 1011,5 hPa 0,0 l/m 0,0 km/h (0 Bft) O-NO 67 0 min 10,5 C 14,0 C 0,0 km/h (0 Bft)
31.07.2021 23:35 15,3 C 20,5 C 15,1 C 14,8 C 13,9 C 0,0 C 74 % 76 % 1011,5 hPa 0,0 l/m 0,0 km/h (0 Bft) O-NO 67 0 min 10,7 C 13,9 C 0,0 km/h (0 Bft)
31.07.2021 23:40 15,1 C 20,5 C 14,9 C 14,7 C 13,8 C 0,0 C 74 % 76 % 1011,8 hPa 0,0 l/m 0,0 km/h (0 Bft) O-NO 67 0 min 10,5 C 13,8 C 0,0 km/h (0 Bft)
31.07.2021 23:45 15,0 C 20,5 C 14,9 C 14,6 C 13,8 C 0,0 C 75 % 76 % 1011,8 hPa 0,0 l/m 0,0 km/h (0 Bft) O-NO 67 0 min 10,6 C 13,8 C 0,0 km/h (0 Bft)
31.07.2021 23:50 15,1 C 20,5 C 14,8 C 14,7 C 13,9 C 0,0 C 75 % 77 % 1011,8 hPa 0,0 l/m 0,0 km/h (0 Bft) O-NO 67 0 min 10,7 C 13,9 C 0,0 km/h (0 Bft)
31.07.2021 23:55 15,0 C 20,5 C 14,8 C 14,6 C 13,9 C 0,0 C 75 % 77 % 1011,8 hPa 0,0 l/m 0,0 km/h (0 Bft) O-NO 67 0 min 10,6 C 13,9 C 0,0 km/h (0 Bft)
_ Min-Zeit 23:45 10:00 23:50 23:45 23:40 00:00 13:30 13:30 03:15 - 00:00 - - - 22:55 23:40 00:00
Minimum _ 15,0 C 20,1 C 14,8 C 14,6 C 13,8 C 0,0 C 41 % 42 % 1008,1 hPa - 0,0 km/h (0 Bft) - - - 10,4 C 13,8 C 0,0 km/h (0 Bft)
_ Max-Zeit 13:25 00:00 13:20 13:25 13:25 08:25 00:20 00:15 23:40 00:00 16:30 - - 16:19 07:35 13:25 10:15
Maximum _ 25,5 C 21,2 C 25,3 C 30,5 C 30,5 C 7,8 C 79 % 81 % 1011,8 hPa 0,0 l/m 5,3 km/h
SW (1 Bft)
- - 60 min 14,9 C 30,5 C 16,4 km/h
S-SW (3 Bft)
Durchschnitt _ 20,9 C 20,5 C 20,3 C 22,5 C 22,2 C 1,8 C 59 % 61 % 1009,8 hPa #0,0 l/m 1,9 km/h (1 Bft) SW - #6:47 h 12,2 C 22,2 C 2,7 km/h (1 Bft)
2021 www.wetterstation-wechselburg.de